| time (UTC) | temp F | wind direction | speed MPH | gust MPH | rain 1hr in | rain 24hr in | rain mn in | humidity % | barometer mb |
| 20260506180905 | 61 | 237 | 3.0 | 6.0 | 0.01 | 0.14 | 0.14 | 92 | 1005.6 |
| 20260506180405 | 61 | 208 | 3.0 | 5.0 | 0.02 | 0.14 | 0.14 | 92 | 1005.6 |
| 20260506175905 | 61 | 234 | 2.0 | 7.0 | 0.02 | 0.14 | 0.14 | 92 | 1005.6 |
| 20260506175405 | 61 | 228 | 3.0 | 8.0 | 0.03 | 0.14 | 0.14 | 92 | 1005.6 |
| 20260506174908 | 61 | 230 | 5.0 | 12.0 | 0.02 | 0.13 | 0.13 | 92 | 1005.7 |
| 20260506174407 | 62 | 209 | 3.0 | 7.0 | 0.03 | 0.13 | 0.13 | 92 | 1005.7 |
| 20260506173907 | 62 | 242 | 2.0 | 9.0 | 0.04 | 0.13 | 0.13 | 92 | 1005.6 |
| 20260506173406 | 62 | 222 | 3.0 | 13.0 | 0.05 | 0.13 | 0.13 | 92 | 1005.6 |
| 20260506172911 | 62 | 197 | 2.0 | 6.0 | 0.06 | 0.13 | 0.13 | 92 | 1005.7 |
| 20260506172407 | 62 | 246 | 1.0 | 5.0 | 0.07 | 0.13 | 0.13 | 92 | 1005.8 |
| 20260506171404 | 61 | 190 | 3.0 | 8.0 | 0.08 | 0.13 | 0.13 | 92 | 1005.8 |
| 20260506170906 | 61 | 227 | 3.0 | 8.0 | 0.08 | 0.13 | 0.13 | 91 | 1005.9 |
| 20260506170407 | 61 | 234 | 1.0 | 3.0 | 0.08 | 0.12 | 0.12 | 91 | 1006.0 |
| 20260506165907 | 61 | 205 | 2.0 | 5.0 | 0.09 | 0.12 | 0.12 | 91 | 1006.1 |
| 20260506164906 | 62 | 227 | 3.0 | 8.0 | 0.09 | 0.11 | 0.11 | 91 | 1006.3 |
| 20260506164406 | 62 | 209 | 2.0 | 6.0 | 0.08 | 0.10 | 0.10 | 91 | 1006.3 |
| 20260506163904 | 62 | 190 | 2.0 | 5.0 | 0.08 | 0.09 | 0.09 | 90 | 1006.5 |
| 20260506163404 | 62 | 222 | 3.0 | 9.0 | 0.07 | 0.08 | 0.08 | 90 | 1006.6 |
| 20260506162419 | 62 | 211 | 2.0 | 6.0 | 0.05 | 0.06 | 0.06 | 90 | 1006.7 |
| 20260506161403 | 62 | 224 | 3.0 | 10.0 | 0.04 | 0.05 | 0.05 | 89 | 1006.7 |
| 20260506160904 | 62 | 235 | 3.0 | 8.0 | 0.05 | 0.05 | 0.05 | 89 | 1006.8 |
| 20260506160403 | 62 | 202 | 2.0 | 10.0 | 0.04 | 0.04 | 0.04 | 89 | 1006.8 |
| 20260506155912 | 62 | 242 | 2.0 | 5.0 | 0.03 | 0.03 | 0.03 | 88 | 1006.9 |
| 20260506155407 | 63 | 244 | 2.0 | 5.0 | 0.03 | 0.03 | 0.03 | 88 | 1007.0 |
| 20260506154908 | 63 | 237 | 2.0 | 5.0 | 0.02 | 0.02 | 0.02 | 87 | 1006.9 |
| 20260506153903 | 63 | 233 | 3.0 | 5.0 | 0.01 | 0.01 | 0.01 | 86 | 1006.9 |
| 20260506153404 | 63 | 218 | 2.0 | 6.0 | 0.01 | 0.01 | 0.01 | 86 | 1007.0 |
| 20260506152906 | 63 | 244 | 3.0 | 8.0 | 0.01 | 0.01 | 0.01 | 85 | 1006.9 |
| 20260506152406 | 64 | 228 | 2.0 | 6.0 | 0.01 | 0.01 | 0.01 | 85 | 1006.8 |
| 20260506151904 | 64 | 223 | 2.0 | 6.0 | 0.01 | 0.01 | 0.01 | 84 | 1006.8 |
| 20260506151403 | 64 | 216 | 5.0 | 10.0 | 0.01 | 0.01 | 0.01 | 83 | 1006.9 |
| 20260506150405 | 64 | 224 | 2.0 | 5.0 | 0.00 | 0.00 | 0.00 | 82 | 1007.0 |
| 20260506145904 | 64 | 235 | 2.0 | 5.0 | 0.00 | 0.00 | 0.00 | 81 | 1007.0 |
| 20260506145403 | 65 | 244 | 3.0 | 7.0 | 0.00 | 0.00 | 0.00 | 80 | 1007.1 |
| 20260506144904 | 65 | 217 | 2.0 | 7.0 | 0.00 | 0.00 | 0.00 | 80 | 1007.2 |
| 20260506144404 | 65 | 241 | 3.0 | 7.0 | 0.00 | 0.00 | 0.00 | 79 | 1007.2 |
| 20260506143904 | 65 | 238 | 2.0 | 6.0 | 0.00 | 0.00 | 0.00 | 78 | 1007.3 |
| 20260506142904 | 65 | 273 | 2.0 | 6.0 | 0.00 | 0.00 | 0.00 | 77 | 1007.4 |
| 20260506142404 | 65 | 246 | 4.0 | 9.0 | 0.00 | 0.00 | 0.00 | 77 | 1007.5 |
| 20260506141903 | 65 | 235 | 2.0 | 9.0 | 0.00 | 0.00 | 0.00 | 76 | 1007.4 |
| 20260506141404 | 65 | 241 | 4.0 | 9.0 | 0.00 | 0.00 | 0.00 | 76 | 1007.5 |
| 20260506140904 | 65 | 214 | 2.0 | 9.0 | 0.00 | 0.00 | 0.00 | 76 | 1007.5 |
| 20260506140405 | 65 | 239 | 3.0 | 6.0 | 0.00 | 0.00 | 0.00 | 76 | 1007.4 |
| 20260506135904 | 65 | 200 | 4.0 | 7.0 | 0.00 | 0.00 | 0.00 | 76 | 1007.3 |
| 20260506135404 | 66 | 244 | 2.0 | 8.0 | 0.00 | 0.00 | 0.00 | 76 | 1007.4 |
| 20260506134907 | 66 | 218 | 3.0 | 10.0 | 0.00 | 0.00 | 0.00 | 76 | 1007.2 |
| 20260506134404 | 66 | 195 | 3.0 | 7.0 | 0.00 | 0.00 | 0.00 | 76 | 1007.0 |
| 20260506133904 | 66 | 210 | 2.0 | 12.0 | 0.00 | 0.00 | 0.00 | 76 | 1007.0 |
| 20260506133406 | 66 | 219 | 3.0 | 10.0 | 0.00 | 0.00 | 0.00 | 76 | 1006.9 |
| 20260506132903 | 66 | 241 | 3.0 | 8.0 | 0.00 | 0.00 | 0.00 | 76 | 1007.0 |
| 20260506132404 | 65 | 237 | 2.0 | 7.0 | 0.00 | 0.00 | 0.00 | 76 | 1007.0 |
| 20260506131909 | 65 | 239 | 4.0 | 10.0 | 0.00 | 0.00 | 0.00 | 76 | 1006.8 |
| 20260506131404 | 65 | 226 | 3.0 | 7.0 | 0.00 | 0.00 | 0.00 | 77 | 1006.8 |
| 20260506130905 | 65 | 211 | 4.0 | 8.0 | 0.00 | 0.00 | 0.00 | 77 | 1006.8 |
| 20260506125903 | 64 | 247 | 3.0 | 6.0 | 0.00 | 0.00 | 0.00 | 78 | 1007.0 |
| 20260506125405 | 64 | 230 | 2.0 | 7.0 | 0.00 | 0.00 | 0.00 | 78 | 1006.9 |
| 20260506124904 | 64 | 127 | 2.0 | 6.0 | 0.00 | 0.00 | 0.00 | 78 | 1007.0 |
| 20260506124404 | 64 | 227 | 2.0 | 5.0 | 0.00 | 0.00 | 0.00 | 78 | 1007.1 |
| 20260506123904 | 64 | 207 | 3.0 | 6.0 | 0.00 | 0.00 | 0.00 | 78 | 1007.3 |
| 20260506123404 | 64 | 158 | 1.0 | 3.0 | 0.00 | 0.00 | 0.00 | 78 | 1007.4 |
| 20260506122905 | 64 | 223 | 2.0 | 6.0 | 0.00 | 0.00 | 0.00 | 78 | 1007.4 |
| 20260506121904 | 63 | 225 | 2.0 | 5.0 | 0.00 | 0.00 | 0.00 | 78 | 1007.7 |
| 20260506121404 | 64 | 232 | 5.0 | 8.0 | 0.00 | 0.00 | 0.00 | 78 | 1007.8 |
| 20260506120904 | 64 | 254 | 3.0 | 12.0 | 0.00 | 0.00 | 0.00 | 78 | 1007.7 |
| 20260506120405 | 64 | 219 | 3.0 | 10.0 | 0.00 | 0.00 | 0.00 | 78 | 1007.7 |
| 20260506115904 | 64 | 182 | 3.0 | 8.0 | 0.00 | 0.00 | 0.00 | 78 | 1007.5 |
| 20260506115405 | 64 | 218 | 3.0 | 6.0 | 0.00 | 0.00 | 0.00 | 77 | 1007.5 |
| 20260506114904 | 64 | 242 | 4.0 | 9.0 | 0.00 | 0.00 | 0.00 | 77 | 1007.4 |
| 20260506114403 | 64 | 215 | 3.0 | 10.0 | 0.00 | 0.00 | 0.00 | 77 | 1007.4 |
| 20260506113904 | 64 | 213 | 4.0 | 10.0 | 0.00 | 0.00 | 0.00 | 78 | 1007.4 |
| 20260506113404 | 63 | 231 | 3.0 | 8.0 | 0.00 | 0.00 | 0.00 | 77 | 1007.4 |
| 20260506111426 | 63 | 215 | 3.0 | 8.0 | 0.00 | 0.00 | 0.00 | 78 | 1007.3 |
| 20260506105904 | 62 | 239 | 3.0 | 9.0 | 0.00 | 0.00 | 0.00 | 80 | 1007.1 |
| 20260506105404 | 62 | 219 | 2.0 | 6.0 | 0.00 | 0.00 | 0.00 | 81 | 1006.9 |
| 20260506104911 | 61 | 225 | 3.0 | 7.0 | 0.00 | 0.00 | 0.00 | 83 | 1007.0 |
| 20260506103904 | 59 | 209 | 3.0 | 16.0 | 0.00 | 0.00 | 0.00 | 88 | 1007.0 |
| 20260506101908 | 56 | 244 | 2.0 | 3.0 | 0.00 | 0.00 | 0.00 | 92 | 1007.2 |
| 20260506101408 | 55 | 243 | 2.0 | 3.0 | 0.00 | 0.00 | 0.00 | 92 | 1007.1 |
| 20260506100915 | 55 | 297 | 1.0 | 3.0 | 0.00 | 0.00 | 0.00 | 92 | 1007.1 |
| 20260506094422 | 55 | 338 | 1.0 | 2.0 | 0.00 | 0.00 | 0.00 | 91 | 1007.0 |
| 20260506093411 | 55 | 338 | 0.0 | 2.0 | 0.00 | 0.00 | 0.00 | 91 | 1006.9 |
| 20260506092913 | 55 | 338 | 0.0 | 1.0 | 0.00 | 0.00 | 0.00 | 91 | 1006.9 |
| 20260506092419 | 55 | 338 | 0.0 | 1.0 | 0.00 | 0.00 | 0.00 | 91 | 1007.0 |
| 20260506091925 | 55 | 338 | 1.0 | 2.0 | 0.00 | 0.00 | 0.00 | 90 | 1006.9 |
| 20260506091409 | 56 | 338 | 1.0 | 1.0 | 0.00 | 0.00 | 0.00 | 90 | 1006.9 |
| 20260506090907 | 56 | 338 | 0.0 | 0.0 | 0.00 | 0.00 | 0.00 | 90 | 1007.0 |
| 20260506090407 | 56 | 338 | 0.0 | 0.0 | 0.00 | 0.00 | 0.00 | 90 | 1006.9 |
| 20260506085911 | 56 | 338 | 0.0 | 0.0 | 0.00 | 0.00 | 0.00 | 90 | 1007.0 |
| 20260506085408 | 56 | 338 | 0.0 | 0.0 | 0.00 | 0.00 | 0.00 | 90 | 1007.1 |
| 20260506084906 | 56 | 338 | 0.0 | 1.0 | 0.00 | 0.00 | 0.00 | 90 | 1007.2 |
| 20260506084405 | 57 | 338 | 1.0 | 1.0 | 0.00 | 0.00 | 0.00 | 90 | 1007.3 |
| 20260506083909 | 57 | 338 | 0.0 | 1.0 | 0.00 | 0.00 | 0.00 | 89 | 1007.3 |
| 20260506083408 | 57 | 338 | 1.0 | 1.0 | 0.00 | 0.00 | 0.00 | 89 | 1007.3 |
| 20260506082916 | 57 | 338 | 0.0 | 1.0 | 0.00 | 0.00 | 0.00 | 89 | 1007.2 |
| 20260506082422 | 57 | 338 | 0.0 | 0.0 | 0.00 | 0.00 | 0.00 | 89 | 1007.2 |
| 20260506081910 | 57 | 338 | 0.0 | 0.0 | 0.00 | 0.00 | 0.00 | 89 | 1007.2 |
| 20260506081404 | 57 | 338 | 0.0 | 0.0 | 0.00 | 0.00 | 0.00 | 88 | 1007.2 |
| 20260506080904 | 57 | 338 | 0.0 | 1.0 | 0.00 | 0.00 | 0.00 | 88 | 1007.2 |
| 20260506080404 | 58 | 338 | 1.0 | 2.0 | 0.00 | 0.00 | 0.00 | 88 | 1007.3 |
| 20260506073404 | 58 | 338 | 0.0 | 0.0 | 0.00 | 0.00 | 0.00 | 86 | 1007.6 |
| 20260506072904 | 59 | 338 | 0.0 | 2.0 | 0.00 | 0.00 | 0.00 | 86 | 1007.6 |
| 20260506072403 | 59 | 338 | 0.0 | 1.0 | 0.00 | 0.00 | 0.00 | 86 | 1007.7 |
| 20260506071404 | 59 | 338 | 0.0 | 1.0 | 0.00 | 0.00 | 0.00 | 85 | 1007.9 |
| 20260506070903 | 59 | 338 | 0.0 | 1.0 | 0.00 | 0.00 | 0.00 | 85 | 1007.9 |
| 20260506070404 | 59 | 338 | 0.0 | 1.0 | 0.00 | 0.00 | 0.00 | 85 | 1008.0 |
| 20260506061905 | 60 | 339 | 1.0 | 2.0 | 0.00 | 0.00 | 0.00 | 84 | 1008.5 |
| 20260506061404 | 60 | 341 | 1.0 | 3.0 | 0.00 | 0.00 | 0.00 | 83 | 1008.3 |
| 20260506060905 | 60 | 301 | 1.0 | 3.0 | 0.00 | 0.00 | 0.00 | 83 | 1008.3 |
| 20260506051403 | 61 | 295 | 1.0 | 2.0 | 0.00 | 0.00 | 0.00 | 80 | 1008.6 |
| 20260506050905 | 62 | 295 | 1.0 | 2.0 | 0.00 | 0.00 | 0.00 | 79 | 1008.5 |
| 20260506050403 | 62 | 298 | 1.0 | 3.0 | 0.00 | 0.00 | 0.00 | 79 | 1008.5 |
| 20260506044904 | 62 | 315 | 1.0 | 3.0 | 0.00 | 0.00 | 0.00 | 79 | 1008.8 |
| 20260506044403 | 63 | 28 | 1.0 | 8.0 | 0.00 | 0.00 | 0.00 | 79 | 1008.5 |
| 20260506043903 | 63 | 342 | 2.0 | 7.0 | 0.00 | 0.00 | 0.00 | 79 | 1008.6 |
| 20260506043403 | 63 | 339 | 3.0 | 9.0 | 0.00 | 0.00 | 0.00 | 78 | 1008.4 |
| 20260506042403 | 64 | 16 | 1.0 | 3.0 | 0.00 | 0.00 | 0.00 | 76 | 1008.2 |
| 20260506041904 | 64 | 346 | 2.0 | 3.0 | 0.00 | 0.00 | 0.00 | 75 | 1008.1 |
| 20260506041404 | 65 | 275 | 2.0 | 3.0 | 0.00 | 0.00 | 0.00 | 73 | 1008.1 |
| 20260506040904 | 65 | 275 | 1.0 | 1.0 | 0.00 | 0.00 | 0.00 | 72 | 1007.8 |
| 20260506040403 | 65 | 275 | 0.0 | 2.0 | 0.00 | 0.00 | 0.00 | 72 | 1007.7 |
| 20260506035904 | 65 | 275 | 2.0 | 3.0 | 0.00 | 0.00 | 0.00 | 72 | 1007.6 |
| 20260506035404 | 65 | 275 | 1.0 | 2.0 | 0.00 | 0.00 | 0.00 | 72 | 1007.6 |
| 20260506034904 | 66 | 275 | 2.0 | 2.0 | 0.00 | 0.00 | 0.00 | 71 | 1007.6 |
| 20260506033903 | 67 | 275 | 0.0 | 2.0 | 0.00 | 0.00 | 0.00 | 69 | 1007.5 |
| 20260506033404 | 67 | 275 | 1.0 | 2.0 | 0.00 | 0.00 | 0.00 | 67 | 1007.4 |
| 20260506032904 | 68 | 275 | 1.0 | 3.0 | 0.00 | 0.00 | 0.00 | 65 | 1007.5 |
| 20260506032404 | 70 | 288 | 2.0 | 7.0 | 0.00 | 0.00 | 0.00 | 60 | 1007.5 |
| 20260506031904 | 70 | 266 | 3.0 | 7.0 | 0.00 | 0.00 | 0.00 | 51 | 1007.3 |
| 20260506031404 | 70 | 246 | 3.0 | 5.0 | 0.00 | 0.00 | 0.00 | 52 | 1007.2 |
| 20260506030905 | 69 | 233 | 2.0 | 7.0 | 0.00 | 0.00 | 0.00 | 55 | 1007.2 |
| 20260506030404 | 68 | 242 | 2.0 | 7.0 | 0.00 | 0.00 | 0.00 | 59 | 1007.1 |
| 20260506025906 | 67 | 249 | 2.0 | 3.0 | 0.00 | 0.00 | 0.00 | 63 | 1007.2 |
| 20260506025404 | 66 | 197 | 2.0 | 3.0 | 0.00 | 0.00 | 0.00 | 65 | 1007.2 |
| 20260506024403 | 65 | 290 | 0.0 | 2.0 | 0.00 | 0.00 | 0.00 | 73 | 1007.1 |
| 20260506023904 | 65 | 290 | 1.0 | 2.0 | 0.00 | 0.00 | 0.00 | 73 | 1007.1 |
| 20260506023403 | 65 | 290 | 1.0 | 2.0 | 0.00 | 0.00 | 0.00 | 74 | 1007.1 |
| 20260506022904 | 65 | 290 | 1.0 | 2.0 | 0.00 | 0.00 | 0.00 | 74 | 1007.1 |
| 20260506022405 | 65 | 290 | 1.0 | 2.0 | 0.00 | 0.00 | 0.00 | 74 | 1007.2 |
| 20260506021904 | 65 | 290 | 2.0 | 2.0 | 0.00 | 0.00 | 0.00 | 74 | 1007.3 |
| 20260506021404 | 65 | 290 | 1.0 | 3.0 | 0.00 | 0.00 | 0.00 | 74 | 1007.3 |
| 20260506020905 | 65 | 290 | 2.0 | 2.0 | 0.00 | 0.00 | 0.00 | 74 | 1007.4 |
| 20260506020403 | 65 | 290 | 1.0 | 2.0 | 0.00 | 0.00 | 0.00 | 73 | 1007.5 |
| 20260506015904 | 66 | 290 | 1.0 | 2.0 | 0.00 | 0.00 | 0.00 | 73 | 1007.5 |
| 20260506015404 | 66 | 290 | 0.0 | 3.0 | 0.00 | 0.00 | 0.00 | 72 | 1007.6 |
| 20260506014903 | 66 | 288 | 1.0 | 3.0 | 0.00 | 0.00 | 0.00 | 71 | 1007.5 |
| 20260506013903 | 66 | 73 | 1.0 | 2.0 | 0.00 | 0.00 | 0.00 | 69 | 1007.3 |
| 20260506013404 | 67 | 97 | 1.0 | 1.0 | 0.00 | 0.00 | 0.00 | 69 | 1007.2 |
| 20260506011404 | 66 | 97 | 1.0 | 2.0 | 0.00 | 0.00 | 0.00 | 69 | 1006.9 |
| 20260506010904 | 66 | 97 | 1.0 | 2.0 | 0.00 | 0.00 | 0.00 | 69 | 1006.9 |
| 20260506005903 | 66 | 97 | 0.0 | 2.0 | 0.00 | 0.00 | 0.00 | 70 | 1006.9 |
| 20260506005403 | 66 | 97 | 2.0 | 3.0 | 0.00 | 0.00 | 0.00 | 70 | 1006.7 |
| 20260506004903 | 66 | 97 | 1.0 | 3.0 | 0.00 | 0.00 | 0.00 | 70 | 1006.8 |
| 20260506004403 | 66 | 97 | 2.0 | 6.0 | 0.00 | 0.00 | 0.00 | 70 | 1006.7 |
| 20260506003905 | 66 | 93 | 2.0 | 3.0 | 0.00 | 0.00 | 0.00 | 70 | 1006.7 |
| 20260506003404 | 66 | 93 | 2.0 | 3.0 | 0.00 | 0.00 | 0.00 | 70 | 1006.6 |
| 20260506002904 | 66 | 93 | 1.0 | 2.0 | 0.00 | 0.00 | 0.00 | 70 | 1006.6 |
| 20260506002403 | 67 | 93 | 1.0 | 3.0 | 0.00 | 0.00 | 0.00 | 70 | 1006.6 |
| 20260506001904 | 67 | 92 | 2.0 | 3.0 | 0.00 | 0.00 | 0.00 | 70 | 1006.7 |
| 20260506000903 | 67 | 93 | 0.0 | 1.0 | 0.00 | 0.00 | 0.00 | 69 | 1006.7 |
| 20260506000405 | 67 | 93 | 0.0 | 2.0 | 0.00 | 0.00 | 0.00 | 69 | 1006.5 |
| 20260505235904 | 67 | 93 | 1.0 | 2.0 | 0.00 | 0.00 | 0.00 | 69 | 1006.4 |
| 20260505235404 | 67 | 93 | 1.0 | 3.0 | 0.00 | 0.00 | 0.00 | 69 | 1006.4 |
| 20260505233904 | 67 | 90 | 1.0 | 3.0 | 0.00 | 0.00 | 0.00 | 69 | 1006.2 |
| 20260505233404 | 67 | 96 | 1.0 | 3.0 | 0.00 | 0.00 | 0.00 | 69 | 1006.3 |
| 20260505232904 | 67 | 99 | 3.0 | 3.0 | 0.00 | 0.00 | 0.00 | 69 | 1006.3 |
| 20260505232404 | 67 | 101 | 2.0 | 3.0 | 0.00 | 0.00 | 0.00 | 68 | 1006.3 |
| 20260505231904 | 68 | 107 | 1.0 | 3.0 | 0.00 | 0.00 | 0.00 | 67 | 1006.4 |
| 20260505231404 | 68 | 255 | 1.0 | 3.0 | 0.00 | 0.00 | 0.00 | 67 | 1006.3 |
| 20260505230904 | 68 | 266 | 2.0 | 2.0 | 0.00 | 0.00 | 0.00 | 67 | 1006.1 |
| 20260505230403 | 68 | 266 | 1.0 | 3.0 | 0.00 | 0.00 | 0.00 | 66 | 1006.3 |
| 20260505225904 | 69 | 100 | 2.0 | 3.0 | 0.00 | 0.00 | 0.00 | 64 | 1006.1 |
| 20260505224905 | 70 | 343 | 2.0 | 5.0 | 0.00 | 0.00 | 0.00 | 60 | 1006.2 |
| 20260505222904 | 78 | 349 | 6.0 | 10.0 | 0.00 | 0.00 | 0.00 | 42 | 1006.0 |
| 20260505222404 | 79 | 295 | 5.0 | 12.0 | 0.00 | 0.00 | 0.00 | 34 | 1005.6 |
| 20260505221904 | 79 | 249 | 5.0 | 13.0 | 0.00 | 0.00 | 0.00 | 32 | 1004.9 |
| 20260505221405 | 79 | 259 | 4.0 | 9.0 | 0.00 | 0.00 | 0.00 | 32 | 1004.8 |
| 20260505215904 | 80 | 241 | 6.0 | 12.0 | 0.00 | 0.00 | 0.00 | 31 | 1004.5 |
| 20260505215403 | 80 | 260 | 5.0 | 15.0 | 0.00 | 0.00 | 0.00 | 31 | 1004.5 |
| 20260505214904 | 80 | 238 | 8.0 | 13.0 | 0.00 | 0.00 | 0.00 | 31 | 1004.4 |
| 20260505214404 | 80 | 232 | 6.0 | 12.0 | 0.00 | 0.00 | 0.00 | 31 | 1004.2 |
| 20260505213903 | 80 | 247 | 5.0 | 10.0 | 0.00 | 0.00 | 0.00 | 32 | 1004.2 |
| 20260505213405 | 80 | 240 | 6.0 | 12.0 | 0.00 | 0.00 | 0.00 | 31 | 1004.1 |
| 20260505212904 | 81 | 241 | 7.0 | 12.0 | 0.00 | 0.00 | 0.00 | 31 | 1004.0 |
| 20260505211404 | 82 | 258 | 7.0 | 17.0 | 0.00 | 0.00 | 0.00 | 31 | 1003.9 |
| 20260505210904 | 82 | 265 | 8.0 | 16.0 | 0.00 | 0.00 | 0.00 | 30 | 1003.8 |
| 20260505210404 | 82 | 244 | 7.0 | 12.0 | 0.00 | 0.00 | 0.00 | 31 | 1003.7 |
| 20260505205904 | 81 | 262 | 8.0 | 18.0 | 0.00 | 0.00 | 0.00 | 31 | 1003.7 |
| 20260505205404 | 81 | 237 | 8.0 | 17.0 | 0.00 | 0.00 | 0.00 | 31 | 1003.7 |
| 20260505204904 | 81 | 237 | 7.0 | 14.0 | 0.00 | 0.00 | 0.00 | 32 | 1003.7 |
| 20260505202904 | 81 | 250 | 8.0 | 16.0 | 0.00 | 0.00 | 0.00 | 32 | 1004.0 |
| 20260505202404 | 82 | 237 | 8.0 | 14.0 | 0.00 | 0.00 | 0.00 | 32 | 1004.1 |
| 20260505201403 | 81 | 243 | 8.0 | 18.0 | 0.00 | 0.00 | 0.00 | 33 | 1004.1 |
| 20260505195904 | 81 | 245 | 9.0 | 18.0 | 0.00 | 0.00 | 0.00 | 33 | 1003.9 |
| 20260505194404 | 82 | 233 | 5.0 | 12.0 | 0.00 | 0.00 | 0.00 | 35 | 1004.2 |
| 20260505193904 | 82 | 238 | 6.0 | 14.0 | 0.00 | 0.00 | 0.00 | 35 | 1004.3 |
| 20260505193404 | 82 | 230 | 6.0 | 16.0 | 0.00 | 0.00 | 0.00 | 34 | 1004.3 |
| 20260505192904 | 82 | 248 | 7.0 | 16.0 | 0.00 | 0.00 | 0.00 | 35 | 1004.3 |
| 20260505191904 | 82 | 236 | 6.0 | 12.0 | 0.00 | 0.00 | 0.00 | 36 | 1004.5 |
| 20260505190904 | 81 | 248 | 6.0 | 12.0 | 0.00 | 0.00 | 0.00 | 37 | 1004.6 |
| 20260505190405 | 81 | 239 | 10.0 | 13.0 | 0.00 | 0.00 | 0.00 | 35 | 1004.6 |
| 20260505183404 | 80 | 250 | 6.0 | 13.0 | 0.00 | 0.00 | 0.00 | 37 | 1004.9 |
| 20260505182905 | 80 | 252 | 10.0 | 21.0 | 0.00 | 0.00 | 0.00 | 36 | 1004.9 |